When you browse on this site, cookies collect data to enhance your experience and personalize the content and advertising you see.
Visit our Privacy Policy to learn more. By continuing to use the site, you agree to this use of cookies and data.
EN

Hourly Weather Alpignano

Today, 27 September, Sunday

Time Temperature Precipitation Wind Pressure Humidity
00:00 +9°C° 0 mm 2 mps 722 mmHg 44%
01:00 +9°C° 0 mm 2 mps 723 mmHg 43%
02:00 +8°C° 0 mm 2 mps 722 mmHg 42%
03:00 +8°C° 0 mm 2 mps 722 mmHg 42%
04:00 +8°C° 0 mm 2 mps 722 mmHg 41%
05:00 +9°C° 0 mm 1 mps 722 mmHg 42%
06:00 +9°C° 0 mm 1 mps 722 mmHg 42%
07:00 +9°C° 0 mm 1 mps 723 mmHg 42%
08:00 +11°C° 0 mm 1 mps 723 mmHg 40%
09:00 +12°C° 0 mm 1 mps 723 mmHg 37%
10:00 +14°C° 0 mm 1 mps 724 mmHg 35%
11:00 +15°C° 0 mm 2 mps 723 mmHg 37%
12:00 +16°C° 0 mm 2 mps 723 mmHg 39%
13:00 +17°C° 0 mm 3 mps 723 mmHg 41%
14:00 +17°C° 0 mm 3 mps 723 mmHg 44%
15:00 +17°C° 0 mm 2 mps 722 mmHg 46%
16:00 +17°C° 0 mm 2 mps 722 mmHg 49%
17:00 +15°C° 0 mm 2 mps 722 mmHg 57%
18:00 +13°C° 0 mm 2 mps 723 mmHg 65%
19:00 +12°C° 0 mm 1 mps 723 mmHg 73%
20:00 +12°C° 0 mm 1 mps 724 mmHg 72%
21:00 +10°C° 0 mm 2 mps 724 mmHg 71%
22:00 +10°C° 0 mm 2 mps 724 mmHg 70%
23:00 +10°C° 0 mm 2 mps 724 mmHg 68%

Tomorrow, 28 September, Monday

Time Temperature Precipitation Wind Pressure Humidity
00:00 +9°C° 0 mm 2 mps 723 mmHg 65%
01:00 +9°C° 0 mm 2 mps 723 mmHg 63%
02:00 +9°C° 0 mm 2 mps 723 mmHg 62%
03:00 +9°C° 0 mm 2 mps 723 mmHg 60%
04:00 +9°C° 0 mm 2 mps 723 mmHg 59%
05:00 +9°C° 0 mm 2 mps 723 mmHg 59%
06:00 +9°C° 0 mm 2 mps 723 mmHg 60%
07:00 +9°C° 0 mm 2 mps 724 mmHg 60%
08:00 +12°C° 0 mm 1 mps 724 mmHg 54%
09:00 +14°C° 0 mm 1 mps 724 mmHg 49%
10:00 +18°C° 0 mm 1 mps 725 mmHg 44%
11:00 +19°C° 0 mm 1 mps 725 mmHg 41%
12:00 +20°C° 0 mm 1 mps 725 mmHg 39%
13:00 +21°C° 0 mm 1 mps 725 mmHg 37%
14:00 +21°C° 0 mm 1 mps 725 mmHg 37%
15:00 +21°C° 0 mm 1 mps 725 mmHg 37%
16:00 +21°C° 0 mm 1 mps 726 mmHg 38%
17:00 +19°C° 0 mm 1 mps 726 mmHg 45%
18:00 +16°C° 0 mm 2 mps 727 mmHg 51%
19:00 +14°C° 0 mm 2 mps 728 mmHg 58%
20:00 +14°C° 0 mm 2 mps 728 mmHg 58%
21:00 +13°C° 0 mm 2 mps 729 mmHg 59%
22:00 +13°C° 0 mm 2 mps 729 mmHg 59%
23:00 +13°C° 0 mm 2 mps 729 mmHg 61%

Day after tomorrow, 29 September, Tuesday

Time Temperature Precipitation Wind Pressure Humidity
00:00 +13°C° 0 mm 1 mps 729 mmHg 63%
01:00 +13°C° 0 mm 1 mps 730 mmHg 65%
02:00 +13°C° 0 mm 1 mps 730 mmHg 66%
03:00 +12°C° 0 mm 1 mps 730 mmHg 67%
04:00 +12°C° 0 mm 1 mps 730 mmHg 69%
05:00 +12°C° 0 mm 1 mps 730 mmHg 69%
06:00 +12°C° 0 mm 1 mps 730 mmHg 69%
07:00 +12°C° 0 mm 1 mps 731 mmHg 69%
08:00 +14°C° 0 mm 1 mps 731 mmHg 63%
09:00 +16°C° 0 mm 1 mps 731 mmHg 57%
10:00 +19°C° 0 mm 1 mps 731 mmHg 51%
11:00 +20°C° 0 mm 1 mps 732 mmHg 50%
12:00 +21°C° 0 mm 1 mps 732 mmHg 48%
13:00 +22°C° 0 mm 1 mps 732 mmHg 47%
14:00 +22°C° 0 mm 1 mps 732 mmHg 48%
15:00 +22°C° 0 mm 1 mps 731 mmHg 48%
16:00 +22°C° 0 mm 1 mps 731 mmHg 49%
17:00 +20°C° 0 mm 1 mps 731 mmHg 54%
18:00 +19°C° 0 mm 1 mps 731 mmHg 59%
19:00 +16°C° 0 mm 1 mps 731 mmHg 64%
20:00 +16°C° 0 mm 1 mps 731 mmHg 65%
21:00 +15°C° 0 mm 1 mps 732 mmHg 66%
22:00 +15°C° 0 mm 1 mps 732 mmHg 67%
23:00 +15°C° 0 mm 1 mps 732 mmHg 67%

30 September, Wednesday

Time Temperature Precipitation Wind Pressure Humidity
00:00 +14°C° 0 mm 1 mps 731 mmHg 68%
01:00 +14°C° 0 mm 1 mps 731 mmHg 68%
02:00 +13°C° 0 mm 0 mps 731 mmHg 69%
03:00 +13°C° 0 mm 0 mps 731 mmHg 69%
04:00 +12°C° 0 mm 0 mps 731 mmHg 70%
05:00 +12°C° 0 mm 0 mps 730 mmHg 69%
06:00 +12°C° 0 mm 0 mps 730 mmHg 69%
07:00 +12°C° 0 mm 0 mps 730 mmHg 69%
08:00 +15°C° 0 mm 1 mps 730 mmHg 63%
09:00 +18°C° 0 mm 1 mps 730 mmHg 58%
10:00 +20°C° 0 mm 1 mps 730 mmHg 53%
11:00 +21°C° 0 mm 1 mps 730 mmHg 52%
12:00 +22°C° 0 mm 1 mps 730 mmHg 51%
13:00 +23°C° 0 mm 1 mps 729 mmHg 50%
14:00 +23°C° 0 mm 1 mps 729 mmHg 51%
15:00 +23°C° 0 mm 1 mps 728 mmHg 52%
16:00 +23°C° 0 mm 1 mps 728 mmHg 53%
17:00 +21°C° 0 mm 1 mps 728 mmHg 60%
18:00 +19°C° 0 mm 1 mps 728 mmHg 67%
19:00 +18°C° 0 mm 1 mps 728 mmHg 74%
20:00 +16°C° 0 mm 1 mps 728 mmHg 75%
21:00 +16°C° 0 mm 1 mps 728 mmHg 75%
22:00 +15°C° 0 mm 1 mps 728 mmHg 76%
23:00 +15°C° 0 mm 1 mps 727 mmHg 77%

1 October, Thursday

Time Temperature Precipitation Wind Pressure Humidity
00:00 +15°C° 0 mm 1 mps 727 mmHg 77%
01:00 +14°C° 0 mm 0 mps 727 mmHg 77%
02:00 +14°C° 0 mm 0 mps 726 mmHg 78%
03:00 +14°C° 0 mm 0 mps 726 mmHg 79%
04:00 +13°C° 0 mm 0 mps 725 mmHg 80%
05:00 +14°C° 0 mm 0 mps 725 mmHg 80%
06:00 +14°C° 0 mm 0 mps 725 mmHg 80%
07:00 +14°C° 0 mm 0 mps 725 mmHg 80%
08:00 +14°C° 0.2 mm 0 mps 725 mmHg 80%
09:00 +16°C° 0.2 mm 1 mps 724 mmHg 80%
10:00 +16°C° 0.2 mm 1 mps 724 mmHg 80%
11:00 +16°C° 1.1 mm 1 mps 724 mmHg 82%
12:00 +16°C° 1.1 mm 2 mps 723 mmHg 84%
13:00 +16°C° 1.1 mm 2 mps 723 mmHg 86%
14:00 +16°C° 1.6 mm 2 mps 723 mmHg 86%
15:00 +15°C° 1.6 mm 2 mps 723 mmHg 85%
16:00 +15°C° 1.6 mm 2 mps 722 mmHg 85%
17:00 +14°C° 0.3 mm 2 mps 722 mmHg 85%
18:00 +14°C° 0.3 mm 2 mps 723 mmHg 85%
19:00 +13°C° 0.3 mm 2 mps 723 mmHg 85%
20:00 +12°C° 0 mm 2 mps 723 mmHg 84%
21:00 +12°C° 0 mm 2 mps 723 mmHg 82%
22:00 +12°C° 0 mm 2 mps 723 mmHg 80%
23:00 +12°C° 0 mm 2 mps 723 mmHg 79%

2 October, Friday

Time Temperature Precipitation Wind Pressure Humidity
00:00 +10°C° 0 mm 2 mps 723 mmHg 77%
01:00 +10°C° 0 mm 2 mps 723 mmHg 75%
02:00 +10°C° 0 mm 2 mps 723 mmHg 72%
03:00 +10°C° 0 mm 2 mps 723 mmHg 69%
04:00 +10°C° 0 mm 2 mps 723 mmHg 66%
05:00 +11°C° 0 mm 1 mps 723 mmHg 63%
06:00 +11°C° 0 mm 1 mps 723 mmHg 61%
07:00 +11°C° 0 mm 1 mps 723 mmHg 58%
08:00 +13°C° 0 mm 1 mps 723 mmHg 53%
09:00 +15°C° 0 mm 1 mps 723 mmHg 48%
10:00 +18°C° 0 mm 1 mps 723 mmHg 44%
11:00 +19°C° 0 mm 1 mps 723 mmHg 42%
12:00 +20°C° 0 mm 1 mps 723 mmHg 41%
13:00 +20°C° 0 mm 2 mps 722 mmHg 39%
14:00 +20°C° 0 mm 2 mps 722 mmHg 42%
15:00 +20°C° 0 mm 2 mps 722 mmHg 44%
16:00 +19°C° 0 mm 2 mps 722 mmHg 46%
17:00 +19°C° 0 mm 1 mps 722 mmHg 53%
18:00 +16°C° 0 mm 1 mps 722 mmHg 60%
19:00 +14°C° 0 mm 1 mps 722 mmHg 67%
20:00 +14°C° 0 mm 1 mps 722 mmHg 67%
21:00 +14°C° 0 mm 1 mps 722 mmHg 66%
22:00 +14°C° 0 mm 1 mps 722 mmHg 66%
23:00 +14°C° 0.1 mm 1 mps 722 mmHg 68%
Show more